Weather History for KATS - February, 2013

Change the Weather History Date:

Wednesday, February 20, 2013

  Actual Average Record
Temperature  
Mean Temperature 50 °F -  
Max Temperature 64 °F 62 °F 86 °F (1986)
Min Temperature 35 °F 29 °F 16 °F (1953)
Degree Days  
Heating Degree Days 16    
Moisture  
Dew Point 30 °F    
Average Humidity 55    
Maximum Humidity 93    
Minimum Humidity 15    
Precipitation  
Precipitation 0.00 in - - ()
Sea Level Pressure  
Sea Level Pressure 29.69 in    
Wind  
Wind Speed 15 mph (South)    
Max Wind Speed 32 mph    
Max Gust Speed 36 mph    
Visibility 10 miles    
Events      
Averages and records for this station are not official NWS values.
T = Trace of Precipitation, MM = Missing Value Source: NWS Daily Summary

Daily Weather History Graph

Daily Weather History Graph

Search for Another Location

Airport or City:

Trip Planner

Search our weather history database for the weather conditions in past years. The results will help you decide how hot, cold, wet, or windy it might be!

Date:

Astronomy

Feb. 20, 2013 Rise Set
Actual Time 6:35 AM MST 5:47 PM MST
Civil Twilight 6:10 AM MST 6:12 PM MST
Nautical Twilight 5:41 AM MST 6:41 PM MST
Astronomical Twilight 5:13 AM MST 7:10 PM MST
Moon 1:20 PM MST (2/20) 2:48 AM MST (2/20)
Length of Visible Light 12h 02m
Length of Day
11h 12m
Waxing Gibbous, 76% of the Moon is Illuminated
Feb 20
Waxing Gibbous
Feb 25
Full
Mar 4
Last Quarter
Mar 11
New
Mar 19
First Quarter

Hourly Weather History & Observations

Time (MST) Temp. Windchill Dew Point Humidity Pressure Visibility Wind Dir Wind Speed Gust Speed Precip Events Conditions
12:15 AM 41.0 °F 32.5 °F 39.2 °F 93% 29.91 in 10.0 mi South 17.3 mph - N/A   Overcast
12:35 AM 42.8 °F 34.5 °F 39.2 °F 87% 29.90 in 10.0 mi South 18.4 mph 21.9 mph N/A   Overcast
12:55 AM 42.8 °F 34.8 °F 37.4 °F 81% 29.89 in 10.0 mi SSE 17.3 mph 23.0 mph N/A   Overcast
1:15 AM 42.8 °F 34.3 °F 37.4 °F 81% 29.87 in 10.0 mi SSE 19.6 mph - N/A   Scattered Clouds
1:35 AM 42.8 °F 34.5 °F 37.4 °F 81% 29.86 in 10.0 mi SSE 18.4 mph 24.2 mph N/A   Clear
1:55 AM 42.8 °F 34.5 °F 35.6 °F 76% 29.87 in 10.0 mi South 18.4 mph - N/A   Clear
2:15 AM 41.0 °F 33.1 °F 35.6 °F 81% 29.86 in 10.0 mi SSE 15.0 mph - N/A   Partly Cloudy
2:35 AM 41.0 °F 32.8 °F 35.6 °F 81% 29.84 in 10.0 mi SSE 16.1 mph - N/A   Clear
2:55 AM 41.0 °F 33.5 °F 35.6 °F 81% 29.83 in 10.0 mi SSE 13.8 mph - N/A   Clear
3:15 AM 41.0 °F 33.9 °F 35.6 °F 81% 29.82 in 10.0 mi SSE 12.7 mph - N/A   Clear
3:35 AM 39.2 °F 31.2 °F 35.6 °F 87% 29.82 in 10.0 mi SSE 13.8 mph - N/A   Clear
3:55 AM 39.2 °F 31.2 °F 35.6 °F 87% 29.81 in 10.0 mi SSE 13.8 mph - N/A   Clear
4:15 AM 39.2 °F 31.2 °F 35.6 °F 87% 29.81 in 10.0 mi South 13.8 mph - N/A   Clear
4:35 AM 39.2 °F 31.2 °F 35.6 °F 87% 29.80 in 10.0 mi South 13.8 mph - N/A   Clear
4:55 AM 39.2 °F 32.0 °F 33.8 °F 81% 29.80 in 10.0 mi South 11.5 mph - N/A   Clear
5:15 AM 37.4 °F 32.1 °F 33.8 °F 87% 29.80 in 10.0 mi SSE 6.9 mph - N/A   Clear
5:35 AM 37.4 °F 31.4 °F 32.0 °F 81% 29.79 in 10.0 mi South 8.1 mph - N/A   Clear
5:55 AM 37.4 °F 32.8 °F 32.0 °F 81% 29.77 in 10.0 mi South 5.8 mph - N/A   Clear
6:15 AM 35.6 °F 29.9 °F 32.0 °F 87% 29.77 in 10.0 mi South 6.9 mph - N/A   Clear
6:35 AM 35.6 °F 29.9 °F 32.0 °F 87% 29.78 in 10.0 mi SSE 6.9 mph - N/A   Clear
6:55 AM 35.6 °F 29.9 °F 33.8 °F 93% 29.77 in 10.0 mi SSE 6.9 mph - N/A   Clear
7:15 AM 35.6 °F 29.9 °F 33.8 °F 93% 29.77 in 10.0 mi SSE 6.9 mph - N/A   Clear
7:35 AM 37.4 °F 33.8 °F 35.6 °F 93% 29.78 in 10.0 mi SE 4.6 mph - N/A   Clear
7:55 AM 39.2 °F 35.0 °F 35.6 °F 87% 29.78 in 10.0 mi SSE 5.8 mph - N/A   Clear
8:15 AM 41.0 °F 33.5 °F 35.6 °F 81% 29.78 in 10.0 mi SSE 13.8 mph - N/A   Mostly Cloudy
8:35 AM 42.8 °F 34.8 °F 35.6 °F 76% 29.77 in 10.0 mi SE 17.3 mph - N/A   Overcast
8:55 AM 44.6 °F 36.6 °F 37.4 °F 76% 29.77 in 10.0 mi SSE 19.6 mph 25.3 mph N/A   Mostly Cloudy
9:15 AM 46.4 °F 38.3 °F 37.4 °F 71% 29.76 in 10.0 mi SSE 23.0 mph 27.6 mph N/A   Scattered Clouds
9:35 AM 46.4 °F 38.5 °F 37.4 °F 71% 29.76 in 10.0 mi SSE 21.9 mph - N/A   Scattered Clouds
9:55 AM 48.2 °F - 39.2 °F 71% 29.75 in 10.0 mi SSE 21.9 mph 26.5 mph N/A   Scattered Clouds
10:15 AM 48.2 °F - 39.2 °F 71% 29.74 in 10.0 mi SSE 20.7 mph 25.3 mph N/A   Partly Cloudy
10:55 AM 51.8 °F - 39.2 °F 62% 29.72 in 10.0 mi SE 18.4 mph 24.2 mph N/A   Clear
11:15 AM 51.8 °F - 39.2 °F 62% 29.71 in 10.0 mi SE 18.4 mph 23.0 mph N/A   Clear
11:35 AM 53.6 °F - 39.2 °F 58% 29.69 in 10.0 mi SE 19.6 mph 23.0 mph N/A   Clear
11:55 AM 55.4 °F - 39.2 °F 54% 29.68 in 10.0 mi SE 17.3 mph 21.9 mph N/A   Clear
12:15 PM 57.2 °F - 39.2 °F 51% 29.66 in 10.0 mi SE 13.8 mph 21.9 mph N/A   Clear
12:35 PM 57.2 °F - 37.4 °F 48% 29.65 in 10.0 mi SSE 16.1 mph 25.3 mph N/A   Clear
12:55 PM 59.0 °F - 35.6 °F 42% 29.63 in 10.0 mi SSE 18.4 mph 21.9 mph N/A   Clear
1:15 PM 59.0 °F - 35.6 °F 42% 29.61 in 10.0 mi SSE 16.1 mph 21.9 mph N/A   Clear
1:55 PM 62.6 °F - 32.0 °F 32% 29.58 in 10.0 mi SSE 17.3 mph 21.9 mph N/A   Clear
2:15 PM 62.6 °F - 32.0 °F 32% 29.56 in 10.0 mi SSE 13.8 mph 23.0 mph N/A   Clear
2:35 PM 62.6 °F - 32.0 °F 32% 29.56 in 10.0 mi SSE 16.1 mph 20.7 mph N/A   Clear
2:55 PM 62.6 °F - 32.0 °F 32% 29.54 in 10.0 mi SSW 8.1 mph 17.3 mph N/A   Clear
3:15 PM 64.4 °F - 32.0 °F 30% 29.53 in 10.0 mi SSE 12.7 mph - N/A   Clear
3:35 PM 64.4 °F - 32.0 °F 30% 29.53 in 10.0 mi SSW 12.7 mph 19.6 mph N/A   Clear
3:55 PM 64.4 °F - 21.2 °F 19% 29.52 in 10.0 mi SW 18.4 mph 24.2 mph N/A   Clear
4:15 PM 64.4 °F - 15.8 °F 15% 29.52 in 10.0 mi West 18.4 mph - N/A   Clear
4:35 PM 62.6 °F - 15.8 °F 16% 29.52 in 10.0 mi West 17.3 mph 21.9 mph N/A   Clear
4:55 PM 62.6 °F - 15.8 °F 16% 29.52 in 10.0 mi West 15.0 mph - N/A   Clear
5:15 PM 60.8 °F - 15.8 °F 17% 29.53 in 10.0 mi WSW 12.7 mph 19.6 mph N/A   Clear
5:35 PM 59.0 °F - 15.8 °F 19% 29.54 in 10.0 mi WSW 12.7 mph - N/A   Clear
5:55 PM 59.0 °F - 15.8 °F 19% 29.54 in 9.0 mi WSW 11.5 mph - N/A   Clear
6:15 PM 57.2 °F - 17.6 °F 21% 29.55 in 5.0 mi WSW 8.1 mph - N/A   Haze
6:35 PM 57.2 °F - 15.8 °F 20% 29.56 in 4.0 mi WSW 12.7 mph - N/A   Haze
6:55 PM 57.2 °F - 15.8 °F 20% 29.56 in 5.0 mi WSW 16.1 mph - N/A   Haze
7:15 PM 57.2 °F - 15.8 °F 20% 29.58 in 7.0 mi WSW 15.0 mph - N/A   Clear
7:35 PM 55.4 °F - 15.8 °F 21% 29.59 in 7.0 mi West 11.5 mph - N/A   Clear
7:55 PM 51.8 °F - 15.8 °F 24% 29.59 in 7.0 mi WNW 9.2 mph - N/A   Clear
8:15 PM 51.8 °F - 17.6 °F 26% 29.59 in 9.0 mi WNW 18.4 mph 24.2 mph N/A   Clear
8:35 PM 51.8 °F - 23.0 °F 33% 29.59 in 10.0 mi WNW 18.4 mph 29.9 mph N/A   Clear
8:55 PM 50.0 °F - 23.0 °F 35% 29.59 in 10.0 mi WNW 9.2 mph - N/A   Clear
9:15 PM 48.2 °F - 23.0 °F 37% 29.59 in 10.0 mi WNW 9.2 mph - N/A   Clear
9:35 PM 48.2 °F - 23.0 °F 37% 29.59 in 10.0 mi West 12.7 mph - N/A   Clear
9:55 PM 48.2 °F - 23.0 °F 37% 29.59 in 10.0 mi SW 10.4 mph - N/A   Clear
10:15 PM 48.2 °F - 23.0 °F 37% 29.59 in 10.0 mi SW 10.4 mph - N/A   Clear
10:35 PM 48.2 °F - 23.0 °F 37% 29.61 in 10.0 mi WSW 16.1 mph 19.6 mph N/A   Clear
10:55 PM 48.2 °F - 26.6 °F 43% 29.61 in 10.0 mi WSW 23.0 mph 34.5 mph N/A   Clear
11:15 PM 46.4 °F 36.9 °F 24.8 °F 43% 29.60 in 10.0 mi West 32.2 mph 35.7 mph N/A   Clear
11:35 PM 46.4 °F 37.9 °F 24.8 °F 43% 29.63 in 10.0 mi WSW 25.3 mph 32.2 mph N/A   Clear
11:55 PM 44.6 °F 38.4 °F 23.0 °F 43% 29.64 in 10.0 mi WSW 12.7 mph 26.5 mph N/A   Clear